Location: Chippewa Lake
(41.0698°N, 81.9010°W)
Time: 04:26:40
(UTC+00:00)

SL-8 Rocket - Pass Details

Date: 07 October 2021
Orbit: 958 x 990 km, 82.9° (Epoch: 17 October)

Event Time Altitude Azimuth Distance (km) Brightness Sun altitude
Rises 10:38:05 0° 357° (N) 3,699 7.0 -10.8°
Reaches altitude 10° 10:40:43 10° 3° (N) 2,742 6.4 -10.3°
Maximum altitude 10:46:48 50° 78° (ENE) 1,224 5.1 -9.1°
Drops below altitude 10° 10:52:48 10° 153° (SSE) 2,704 6.7 -8.0°
Sets 10:55:22 0° 159° (SSE) 3,642 7.3 -7.5°
